Location: ????????
(54.9045°N, 39.1041°E)
Time: 02:26:19
(UTC+00:00)

Cosmos 1536 - Visible Passes

Search period start: 20 April 2026 00:00
Search period end: 30 April 2026 00:00
Orbit: 482 x 503 km, 82.5° (Epoch: 19 April)

Date Brightness Start Highest point End Pass type
(mag) Time Alt. Az. Time Alt. Az. Time Alt. Az.
20 Apr 5.6 21:22:47 10° NE 21:23:21 10° NE 21:23:55 10° ENE visible
20 Apr 2.6 22:55:40 10° N 22:59:20 74° ENE 22:59:58 56° SE visible
21 Apr 4.6 00:32:23 10° NW 00:34:01 13° W 00:34:29 12° W visible
21 Apr 3.2 22:33:27 10° N 22:37:03 51° ENE 22:37:45 43° ESE visible
22 Apr 4.3 00:09:30 10° NW 00:11:56 17° W 00:12:16 17° W visible
22 Apr 3.7 22:11:18 10° N 22:14:44 37° ENE 22:15:32 32° ESE visible
22 Apr 3.9 23:46:52 10° NW 23:49:48 23° W 23:50:03 23° W visible
23 Apr 4.2 21:49:11 10° N 21:52:22 27° ENE 21:53:20 24° E visible
23 Apr 3.5 23:24:22 10° NNW 23:27:38 31° W 23:27:51 31° W visible
24 Apr 4.6 21:27:08 10° NNE 21:29:58 21° ENE 21:31:07 18° E visible
24 Apr 3.0 23:01:56 10° NNW 23:05:25 44° W 23:05:38 43° WSW visible
25 Apr 5.0 21:05:12 10° NNE 21:07:31 16° ENE 21:08:55 13° E visible
25 Apr 2.5 22:39:33 10° NNW 22:43:10 63° W 22:43:26 60° WSW visible
26 Apr 5.3 20:43:29 10° NNE 20:45:02 12° ENE 20:46:34 10° E visible
26 Apr 2.4 22:17:13 10° NNW 22:20:53 89° WNW 22:21:13 73° S visible
26 Apr 4.9 23:54:47 10° WNW 23:55:27 10° W 23:55:44 10° W visible
27 Apr 2.7 21:54:54 10° N 21:58:33 64° ENE 21:59:01 57° ESE visible
27 Apr 4.6 23:31:18 10° NW 23:33:19 14° W 23:33:32 14° W visible
28 Apr 3.3 21:32:38 10° N 21:36:11 45° ENE 21:36:48 40° ESE visible
28 Apr 4.3 23:08:28 10° NW 23:11:08 19° W 23:11:19 19° W visible
29 Apr 3.8 21:10:25 10° N 21:13:46 33° ENE 21:14:35 29° E visible
29 Apr 3.9 22:45:49 10° NNW 22:48:55 26° W 22:49:07 26° W visible
